Year,Month,Day,Hour,Minute,Value (Times are PST for windgust in km/hr)
2016,08,22,00,00,16.10
2016,08,22,00,01,22.50
2016,08,22,00,02,19.30
2016,08,22,00,03,14.50
2016,08,22,00,04,14.50
2016,08,22,00,05,14.50
2016,08,22,00,06,14.50
2016,08,22,00,07,20.90
2016,08,22,00,08,20.90
2016,08,22,00,09,20.90
2016,08,22,00,10,17.70
2016,08,22,00,11,16.10
2016,08,22,00,12,17.70
2016,08,22,00,13,17.70
2016,08,22,00,14,12.90
2016,08,22,00,15,16.10
2016,08,22,00,16,14.50
2016,08,22,00,17,14.50
2016,08,22,00,18,14.50
2016,08,22,00,19,14.50
2016,08,22,00,20,16.10
2016,08,22,00,21,16.10
2016,08,22,00,22,12.90
2016,08,22,00,23,12.90
2016,08,22,00,24,16.10
2016,08,22,00,25,16.10
2016,08,22,00,26,17.70
2016,08,22,00,27,14.50
2016,08,22,00,28,16.10
2016,08,22,00,29,14.50
2016,08,22,00,30,12.90
2016,08,22,00,31,14.50
2016,08,22,00,32,16.10
2016,08,22,00,33,12.90
2016,08,22,00,34,19.30
2016,08,22,00,35,17.70
2016,08,22,00,36,17.70
2016,08,22,00,37,12.90
2016,08,22,00,38,19.30
2016,08,22,00,39,12.90
2016,08,22,00,40,14.50
2016,08,22,00,41,16.10
2016,08,22,00,42,14.50
2016,08,22,00,43,22.50
2016,08,22,00,44,20.90
2016,08,22,00,45,17.70
2016,08,22,00,46,19.30
2016,08,22,00,47,20.90
2016,08,22,00,48,12.90
2016,08,22,00,49,20.90
2016,08,22,00,50,20.90
2016,08,22,00,51,16.10
2016,08,22,00,52,19.30
2016,08,22,00,53,17.70
2016,08,22,00,54,12.90
2016,08,22,00,55,16.10
2016,08,22,00,56,19.30
2016,08,22,00,57,14.50
2016,08,22,00,58,20.90
2016,08,22,00,59,17.70
2016,08,22,01,00,22.50
2016,08,22,01,01,22.50
2016,08,22,01,02,17.70
2016,08,22,01,03,14.50
2016,08,22,01,04,16.10
2016,08,22,01,05,12.90
2016,08,22,01,06,17.70
2016,08,22,01,07,17.70
2016,08,22,01,08,16.10
2016,08,22,01,09,14.50
2016,08,22,01,10,17.70
2016,08,22,01,11,17.70
2016,08,22,01,12,9.60
2016,08,22,01,13,19.30
2016,08,22,01,14,16.10
2016,08,22,01,15,19.30
2016,08,22,01,16,19.30
2016,08,22,01,17,14.50
2016,08,22,01,18,19.30
2016,08,22,01,19,19.30
2016,08,22,01,20,16.10
2016,08,22,01,21,17.70
2016,08,22,01,22,19.30
2016,08,22,01,23,14.50
2016,08,22,01,24,14.50
2016,08,22,01,25,11.30
2016,08,22,01,26,12.90
2016,08,22,01,27,12.90
2016,08,22,01,28,19.30
2016,08,22,01,29,12.90
2016,08,22,01,30,6.40
2016,08,22,01,31,12.90
2016,08,22,01,32,14.50
2016,08,22,01,33,14.50
2016,08,22,01,34,11.30
2016,08,22,01,35,14.50
2016,08,22,01,36,12.90
2016,08,22,01,37,16.10
2016,08,22,01,38,11.30
2016,08,22,01,39,11.30
2016,08,22,01,40,12.90
2016,08,22,01,41,12.90
2016,08,22,01,42,9.60
2016,08,22,01,43,16.10
2016,08,22,01,44,16.10
2016,08,22,01,45,11.30
2016,08,22,01,46,17.70
2016,08,22,01,47,9.60
2016,08,22,01,48,11.30
2016,08,22,01,49,20.90
2016,08,22,01,50,17.70
2016,08,22,01,51,14.50
2016,08,22,01,52,11.30
2016,08,22,01,53,9.60
2016,08,22,01,54,8.10
2016,08,22,01,55,11.30
2016,08,22,01,56,12.90
2016,08,22,01,57,19.30
2016,08,22,01,58,17.70
2016,08,22,01,59,12.90
2016,08,22,02,00,17.70
2016,08,22,02,01,16.10
2016,08,22,02,02,19.30
2016,08,22,02,03,16.10
2016,08,22,02,04,12.90
2016,08,22,02,05,9.60
2016,08,22,02,06,9.60
2016,08,22,02,07,12.90
2016,08,22,02,08,14.50
2016,08,22,02,09,17.70
2016,08,22,02,10,17.70
2016,08,22,02,11,19.30
2016,08,22,02,12,20.90
2016,08,22,02,13,19.30
2016,08,22,02,14,14.50
2016,08,22,02,15,14.50
2016,08,22,02,16,11.30
2016,08,22,02,17,11.30
2016,08,22,02,18,11.30
2016,08,22,02,19,12.90
2016,08,22,02,20,16.10
2016,08,22,02,21,17.70
2016,08,22,02,22,11.30
2016,08,22,02,23,16.10
2016,08,22,02,24,20.90
2016,08,22,02,25,14.50
2016,08,22,02,26,16.10
2016,08,22,02,27,14.50
2016,08,22,02,28,11.30
2016,08,22,02,29,12.90
2016,08,22,02,30,11.30
2016,08,22,02,31,9.60
2016,08,22,02,32,14.50
2016,08,22,02,33,12.90
2016,08,22,02,34,14.50
2016,08,22,02,35,11.30
2016,08,22,02,36,20.90
2016,08,22,02,37,16.10
2016,08,22,02,38,12.90
2016,08,22,02,39,9.60
2016,08,22,02,40,14.50
2016,08,22,02,41,12.90
2016,08,22,02,42,17.70
2016,08,22,02,43,16.10
2016,08,22,02,44,16.10
2016,08,22,02,45,12.90
2016,08,22,02,46,14.50
2016,08,22,02,47,16.10
2016,08,22,02,48,16.10
2016,08,22,02,49,11.30
2016,08,22,02,50,9.60
2016,08,22,02,51,11.30
2016,08,22,02,52,12.90
2016,08,22,02,53,14.50
2016,08,22,02,54,17.70
2016,08,22,02,55,16.10
2016,08,22,02,56,14.50
2016,08,22,02,57,12.90
2016,08,22,02,58,17.70
2016,08,22,02,59,11.30
2016,08,22,03,00,11.30
2016,08,22,03,01,14.50
2016,08,22,03,02,17.70
2016,08,22,03,03,14.50
2016,08,22,03,04,11.30
2016,08,22,03,05,14.50
2016,08,22,03,06,14.50
2016,08,22,03,07,14.50
2016,08,22,03,08,16.10
2016,08,22,03,09,12.90
2016,08,22,03,10,12.90
2016,08,22,03,11,12.90
2016,08,22,03,12,16.10
2016,08,22,03,13,16.10
2016,08,22,03,14,11.30
2016,08,22,03,15,14.50
2016,08,22,03,16,17.70
2016,08,22,03,17,19.30
2016,08,22,03,18,17.70
2016,08,22,03,19,14.50
2016,08,22,03,20,11.30
2016,08,22,03,21,12.90
2016,08,22,03,22,17.70
2016,08,22,03,23,19.30
2016,08,22,03,24,16.10
2016,08,22,03,25,14.50
2016,08,22,03,26,14.50
2016,08,22,03,27,12.90
2016,08,22,03,28,12.90
2016,08,22,03,29,16.10
2016,08,22,03,30,11.30
2016,08,22,03,31,16.10
2016,08,22,03,32,14.50
2016,08,22,03,33,11.30
2016,08,22,03,34,12.90
2016,08,22,03,35,12.90
2016,08,22,03,36,12.90
2016,08,22,03,37,12.90
2016,08,22,03,38,16.10
2016,08,22,03,39,16.10
2016,08,22,03,40,14.50
2016,08,22,03,41,16.10
2016,08,22,03,42,12.90
2016,08,22,03,43,17.70
2016,08,22,03,44,17.70
2016,08,22,03,45,12.90
2016,08,22,03,46,12.90
2016,08,22,03,47,16.10
2016,08,22,03,48,11.30
2016,08,22,03,49,14.50
2016,08,22,03,50,12.90
2016,08,22,03,51,9.60
2016,08,22,03,52,14.50
2016,08,22,03,53,12.90
2016,08,22,03,54,14.50
2016,08,22,03,55,11.30
2016,08,22,03,56,12.90
2016,08,22,03,57,14.50
2016,08,22,03,58,12.90
2016,08,22,03,59,11.30
2016,08,22,04,00,12.90
2016,08,22,04,01,11.30
2016,08,22,04,02,6.40
2016,08,22,04,03,14.50
2016,08,22,04,04,9.60
2016,08,22,04,05,9.60
2016,08,22,04,06,9.60
2016,08,22,04,07,6.40
2016,08,22,04,08,8.10
2016,08,22,04,09,12.90
2016,08,22,04,10,17.70
2016,08,22,04,11,6.40
2016,08,22,04,12,12.90
2016,08,22,04,13,12.90
2016,08,22,04,14,11.30
2016,08,22,04,15,11.30
2016,08,22,04,16,14.50
2016,08,22,04,17,12.90
2016,08,22,04,18,12.90
2016,08,22,04,19,11.30
2016,08,22,04,20,12.90
2016,08,22,04,21,11.30
2016,08,22,04,22,9.60
2016,08,22,04,23,6.40
2016,08,22,04,24,8.10
2016,08,22,04,25,6.40
2016,08,22,04,26,12.90
2016,08,22,04,27,12.90
2016,08,22,04,28,12.90
2016,08,22,04,29,11.30
2016,08,22,04,30,9.60
2016,08,22,04,31,8.10
2016,08,22,04,32,9.60
2016,08,22,04,33,8.10
2016,08,22,04,34,6.40
2016,08,22,04,35,9.60
2016,08,22,04,36,8.10
2016,08,22,04,37,11.30
2016,08,22,04,38,11.30
2016,08,22,04,39,11.30
2016,08,22,04,40,16.10
2016,08,22,04,41,14.50
2016,08,22,04,42,12.90
2016,08,22,04,43,14.50
2016,08,22,04,44,12.90
2016,08,22,04,45,12.90
2016,08,22,04,46,11.30
2016,08,22,04,47,11.30
2016,08,22,04,48,14.50
2016,08,22,04,49,6.40
2016,08,22,04,50,9.60
2016,08,22,04,51,14.50
2016,08,22,04,52,14.50
2016,08,22,04,53,14.50
2016,08,22,04,54,17.70
2016,08,22,04,55,11.30
2016,08,22,04,56,11.30
2016,08,22,04,57,20.90
2016,08,22,04,58,14.50
2016,08,22,04,59,16.10
2016,08,22,05,00,17.70
2016,08,22,05,01,16.10
2016,08,22,05,02,16.10
2016,08,22,05,03,14.50
2016,08,22,05,04,14.50
2016,08,22,05,05,16.10
2016,08,22,05,06,17.70
2016,08,22,05,07,12.90
2016,08,22,05,08,11.30
2016,08,22,05,09,14.50
2016,08,22,05,10,17.70
2016,08,22,05,11,14.50
2016,08,22,05,12,17.70
2016,08,22,05,13,12.90
2016,08,22,05,14,11.30
2016,08,22,05,15,8.10
2016,08,22,05,16,12.90
2016,08,22,05,17,14.50
2016,08,22,05,18,8.10
2016,08,22,05,19,9.60
2016,08,22,05,20,12.90
2016,08,22,05,21,12.90
2016,08,22,05,22,14.50
2016,08,22,05,23,12.90
2016,08,22,05,24,9.60
2016,08,22,05,25,9.60
2016,08,22,05,26,8.10
2016,08,22,05,27,11.30
2016,08,22,05,28,9.60
2016,08,22,05,29,6.40
2016,08,22,05,30,6.40
2016,08,22,05,31,4.80
2016,08,22,05,32,11.30
2016,08,22,05,33,11.30
2016,08,22,05,34,4.80
2016,08,22,05,35,11.30
2016,08,22,05,36,11.30
2016,08,22,05,37,6.40
2016,08,22,05,38,6.40
2016,08,22,05,39,12.90
2016,08,22,05,40,9.60
2016,08,22,05,41,9.60
2016,08,22,05,42,9.60
2016,08,22,05,43,11.30
2016,08,22,05,44,8.10
2016,08,22,05,45,8.10
2016,08,22,05,46,12.90
2016,08,22,05,47,9.60
2016,08,22,05,48,6.40
2016,08,22,05,49,4.80
2016,08,22,05,50,4.80
2016,08,22,05,51,8.10
2016,08,22,05,52,8.10
2016,08,22,05,53,6.40
2016,08,22,05,54,8.10
2016,08,22,05,55,9.60
2016,08,22,05,56,12.90
2016,08,22,05,57,6.40
2016,08,22,05,58,9.60
2016,08,22,05,59,3.20
2016,08,22,06,00,6.40
2016,08,22,06,01,6.40
2016,08,22,06,02,6.40
2016,08,22,06,03,4.80
2016,08,22,06,04,6.40
2016,08,22,06,05,3.20
2016,08,22,06,06,4.80
2016,08,22,06,07,4.80
2016,08,22,06,08,4.80
2016,08,22,06,09,4.80
2016,08,22,06,10,4.80
2016,08,22,06,11,4.80
2016,08,22,06,12,6.40
2016,08,22,06,13,8.10
2016,08,22,06,14,6.40
2016,08,22,06,15,4.80
2016,08,22,06,16,4.80
2016,08,22,06,17,4.80
2016,08,22,06,18,4.80
2016,08,22,06,19,4.80
2016,08,22,06,20,4.80
2016,08,22,06,21,6.40
2016,08,22,06,22,6.40
2016,08,22,06,23,6.40
2016,08,22,06,24,4.80
2016,08,22,06,25,4.80
2016,08,22,06,26,4.80
2016,08,22,06,27,3.20
2016,08,22,06,28,6.40
2016,08,22,06,29,3.20
2016,08,22,06,30,3.20
2016,08,22,06,31,3.20
2016,08,22,06,32,4.80
2016,08,22,06,51,4.80
2016,08,22,06,52,3.20
2016,08,22,06,53,3.20
2016,08,22,06,54,3.20
2016,08,22,06,55,3.20
2016,08,22,06,56,6.40
2016,08,22,06,57,6.40
2016,08,22,06,58,3.20
2016,08,22,06,59,4.80
2016,08,22,07,00,11.30
2016,08,22,07,01,6.40
2016,08,22,07,02,3.20
2016,08,22,07,03,4.80
2016,08,22,07,04,6.40
2016,08,22,07,05,4.80
2016,08,22,07,06,6.40
2016,08,22,07,07,6.40
2016,08,22,07,08,8.10
2016,08,22,07,09,12.90
2016,08,22,07,10,8.10
2016,08,22,07,11,11.30
2016,08,22,07,12,12.90
2016,08,22,07,13,11.30
2016,08,22,07,14,12.90
2016,08,22,07,15,6.40
2016,08,22,07,16,9.60
2016,08,22,07,17,11.30
2016,08,22,07,18,12.90
2016,08,22,07,19,8.10
2016,08,22,07,20,11.30
2016,08,22,07,21,9.60
2016,08,22,07,22,6.40
2016,08,22,07,23,8.10
2016,08,22,07,24,8.10
2016,08,22,07,25,8.10
2016,08,22,07,26,12.90
2016,08,22,07,27,11.30
2016,08,22,07,28,11.30
2016,08,22,07,29,14.50
2016,08,22,07,30,14.50
2016,08,22,07,31,12.90
2016,08,22,07,32,8.10
2016,08,22,07,33,12.90
2016,08,22,07,34,14.50
2016,08,22,07,35,14.50
2016,08,22,07,36,11.30
2016,08,22,07,37,6.40
2016,08,22,07,38,11.30
2016,08,22,07,39,9.60
2016,08,22,07,40,6.40
2016,08,22,07,41,12.90
2016,08,22,07,42,9.60
2016,08,22,07,43,16.10
2016,08,22,07,44,12.90
2016,08,22,07,45,14.50
2016,08,22,07,46,12.90
2016,08,22,07,47,14.50
2016,08,22,07,48,11.30
2016,08,22,07,49,14.50
2016,08,22,07,50,11.30
2016,08,22,07,51,11.30
2016,08,22,07,52,8.10
2016,08,22,07,53,6.40
2016,08,22,07,54,9.60
2016,08,22,07,55,14.50
2016,08,22,07,56,16.10
2016,08,22,07,57,12.90
2016,08,22,07,58,12.90
2016,08,22,07,59,11.30
2016,08,22,08,00,12.90
2016,08,22,08,01,12.90
2016,08,22,08,02,9.60
2016,08,22,08,03,14.50
2016,08,22,08,04,12.90
2016,08,22,08,05,16.10
2016,08,22,08,06,16.10
2016,08,22,08,07,16.10
2016,08,22,08,08,12.90
2016,08,22,08,09,6.40
2016,08,22,08,10,12.90
2016,08,22,08,11,12.90
2016,08,22,08,12,16.10
2016,08,22,08,13,12.90
2016,08,22,08,14,14.50
2016,08,22,08,15,11.30
2016,08,22,08,16,8.10
2016,08,22,08,17,12.90
2016,08,22,08,18,12.90
2016,08,22,08,19,9.60
2016,08,22,08,20,8.10
2016,08,22,08,21,11.30
2016,08,22,08,22,8.10
2016,08,22,08,23,6.40
2016,08,22,08,24,6.40
2016,08,22,08,25,9.60
2016,08,22,08,26,9.60
2016,08,22,08,27,4.80
2016,08,22,08,28,14.50
2016,08,22,08,29,12.90
2016,08,22,08,30,12.90
2016,08,22,08,31,11.30
2016,08,22,08,32,11.30
2016,08,22,08,33,14.50
2016,08,22,08,34,12.90
2016,08,22,08,35,14.50
2016,08,22,08,36,12.90
2016,08,22,08,37,9.60
2016,08,22,08,38,8.10
2016,08,22,08,39,11.30
2016,08,22,08,40,8.10
2016,08,22,08,41,11.30
2016,08,22,08,42,14.50
2016,08,22,08,43,12.90
2016,08,22,08,44,9.60
2016,08,22,08,45,12.90
2016,08,22,08,46,8.10
2016,08,22,08,47,6.40
2016,08,22,08,48,9.60
2016,08,22,08,49,11.30
2016,08,22,08,50,6.40
2016,08,22,08,51,11.30
2016,08,22,08,52,9.60
2016,08,22,08,53,12.90
2016,08,22,08,54,12.90
2016,08,22,08,55,12.90
2016,08,22,08,56,16.10
2016,08,22,08,57,12.90
2016,08,22,08,58,11.30
2016,08,22,08,59,11.30
2016,08,22,09,00,14.50
2016,08,22,09,01,12.90
2016,08,22,09,02,9.60
2016,08,22,09,03,12.90
2016,08,22,09,04,12.90
2016,08,22,09,05,14.50
2016,08,22,09,06,8.10
2016,08,22,09,07,12.90
2016,08,22,09,08,14.50
2016,08,22,09,09,12.90
2016,08,22,09,10,14.50
2016,08,22,09,11,9.60
2016,08,22,09,12,9.60
2016,08,22,09,13,8.10
2016,08,22,09,14,11.30
2016,08,22,09,15,11.30
2016,08,22,09,16,6.40
2016,08,22,09,17,6.40
2016,08,22,09,18,8.10
2016,08,22,09,19,6.40
2016,08,22,09,20,6.40
2016,08,22,09,21,9.60
2016,08,22,09,22,9.60
2016,08,22,09,23,6.40
2016,08,22,09,24,9.60
2016,08,22,09,25,6.40
2016,08,22,09,26,6.40
2016,08,22,09,27,4.80
2016,08,22,09,28,4.80
2016,08,22,09,29,3.20
2016,08,22,09,30,11.30
2016,08,22,09,31,11.30
2016,08,22,09,32,11.30
2016,08,22,09,33,14.50
2016,08,22,09,34,14.50
2016,08,22,09,35,16.10
2016,08,22,09,36,20.90
2016,08,22,09,37,19.30
2016,08,22,09,38,12.90
2016,08,22,09,39,19.30
2016,08,22,09,40,17.70
2016,08,22,09,41,17.70
2016,08,22,09,42,16.10
2016,08,22,09,43,8.10
2016,08,22,09,44,8.10
2016,08,22,09,45,11.30
2016,08,22,09,46,11.30
2016,08,22,09,47,16.10
2016,08,22,09,48,9.60
2016,08,22,09,49,14.50
2016,08,22,09,50,11.30
2016,08,22,09,51,14.50
2016,08,22,09,52,12.90
2016,08,22,09,53,17.70
2016,08,22,09,54,24.20
2016,08,22,09,55,22.50
2016,08,22,09,56,16.10
2016,08,22,09,57,17.70
2016,08,22,09,58,20.90
2016,08,22,09,59,17.70
2016,08,22,10,00,16.10
2016,08,22,10,01,24.20
2016,08,22,10,02,19.30
2016,08,22,10,03,17.70
2016,08,22,10,04,17.70
2016,08,22,10,05,20.90
2016,08,22,10,06,24.20
2016,08,22,10,07,16.10
2016,08,22,10,08,12.90
2016,08,22,10,09,12.90
2016,08,22,10,10,17.70
2016,08,22,10,11,19.30
2016,08,22,10,12,20.90
2016,08,22,10,13,20.90
2016,08,22,10,14,17.70
2016,08,22,10,15,19.30
2016,08,22,10,16,14.50
2016,08,22,10,17,19.30
2016,08,22,10,18,20.90
2016,08,22,10,19,20.90
2016,08,22,10,20,11.30
2016,08,22,10,21,14.50
2016,08,22,10,22,25.70
2016,08,22,10,23,19.30
2016,08,22,10,24,16.10
2016,08,22,10,25,12.90
2016,08,22,10,26,22.50
2016,08,22,10,27,19.30
2016,08,22,10,28,16.10
2016,08,22,10,29,20.90
2016,08,22,10,30,22.50
2016,08,22,10,31,9.60
2016,08,22,10,32,17.70
2016,08,22,10,33,16.10
2016,08,22,10,34,14.50
2016,08,22,10,35,14.50
2016,08,22,10,36,17.70
2016,08,22,10,37,12.90
2016,08,22,10,38,16.10
2016,08,22,10,39,17.70
2016,08,22,10,40,17.70
2016,08,22,10,41,17.70
2016,08,22,10,42,16.10
2016,08,22,10,43,14.50
2016,08,22,10,44,19.30
2016,08,22,10,45,14.50
2016,08,22,10,46,16.10
2016,08,22,10,47,16.10
2016,08,22,10,48,17.70
2016,08,22,10,49,14.50
2016,08,22,10,50,8.10
2016,08,22,10,51,8.10
2016,08,22,10,52,16.10
2016,08,22,10,53,16.10
2016,08,22,10,54,17.70
2016,08,22,10,55,12.90
2016,08,22,10,56,14.50
2016,08,22,10,57,19.30
2016,08,22,10,58,19.30
2016,08,22,10,59,19.30
2016,08,22,11,00,19.30
2016,08,22,11,01,14.50
2016,08,22,11,02,14.50
2016,08,22,11,03,19.30
2016,08,22,11,04,17.70
2016,08,22,11,05,20.90
2016,08,22,11,06,16.10
2016,08,22,11,07,11.30
2016,08,22,11,08,17.70
2016,08,22,11,09,17.70
2016,08,22,11,10,17.70
2016,08,22,11,11,16.10
2016,08,22,11,12,11.30
2016,08,22,11,13,17.70
2016,08,22,11,14,20.90
2016,08,22,11,15,22.50
2016,08,22,11,16,16.10
2016,08,22,11,17,16.10
2016,08,22,11,18,12.90
2016,08,22,11,19,20.90
2016,08,22,11,20,20.90
2016,08,22,11,21,22.50
2016,08,22,11,22,20.90
2016,08,22,11,23,25.70
2016,08,22,11,24,17.70
2016,08,22,11,25,19.30
2016,08,22,11,26,20.90
2016,08,22,11,27,12.90
2016,08,22,11,28,12.90
2016,08,22,11,29,14.50
2016,08,22,11,30,16.10
2016,08,22,11,31,16.10
2016,08,22,11,32,20.90
2016,08,22,11,33,19.30
2016,08,22,11,34,24.20
2016,08,22,11,35,20.90
2016,08,22,11,36,20.90
2016,08,22,11,37,20.90
2016,08,22,11,38,19.30
2016,08,22,11,39,14.50
2016,08,22,11,40,17.70
2016,08,22,11,41,14.50
2016,08,22,11,42,19.30
2016,08,22,11,43,16.10
2016,08,22,11,44,19.30
2016,08,22,11,45,19.30
2016,08,22,11,46,17.70
2016,08,22,11,47,17.70
2016,08,22,11,48,14.50
2016,08,22,11,49,12.90
2016,08,22,11,50,14.50
2016,08,22,11,51,12.90
2016,08,22,11,52,9.60
2016,08,22,11,53,14.50
2016,08,22,11,54,8.10
2016,08,22,11,55,16.10
2016,08,22,11,56,11.30
2016,08,22,11,57,16.10
2016,08,22,11,58,17.70
2016,08,22,11,59,17.70
2016,08,22,12,00,17.70
2016,08,22,12,01,17.70
2016,08,22,12,02,14.50
2016,08,22,12,03,16.10
2016,08,22,12,04,12.90
2016,08,22,12,05,19.30
2016,08,22,12,06,17.70
2016,08,22,12,07,16.10
2016,08,22,12,08,19.30
2016,08,22,12,09,17.70
2016,08,22,12,10,17.70
2016,08,22,12,11,17.70
2016,08,22,12,12,16.10
2016,08,22,12,13,12.90
2016,08,22,12,14,19.30
2016,08,22,12,15,17.70
2016,08,22,12,16,19.30
2016,08,22,12,17,19.30
2016,08,22,12,18,19.30
2016,08,22,12,19,19.30
2016,08,22,12,20,17.70
2016,08,22,12,21,17.70
2016,08,22,12,22,17.70
2016,08,22,12,23,17.70
2016,08,22,12,24,16.10
2016,08,22,12,25,17.70
2016,08,22,12,26,17.70
2016,08,22,12,27,17.70
2016,08,22,12,28,17.70
2016,08,22,12,29,19.30
2016,08,22,12,30,22.50
2016,08,22,12,31,14.50
2016,08,22,12,32,17.70
2016,08,22,12,33,17.70
2016,08,22,12,34,19.30
2016,08,22,12,35,16.10
2016,08,22,12,36,14.50
2016,08,22,12,37,14.50
2016,08,22,12,38,9.60
2016,08,22,12,39,12.90
2016,08,22,12,40,12.90
2016,08,22,12,41,11.30
2016,08,22,12,42,12.90
2016,08,22,12,43,12.90
2016,08,22,12,44,14.50
2016,08,22,12,45,11.30
2016,08,22,12,46,12.90
2016,08,22,12,47,12.90
2016,08,22,12,48,12.90
2016,08,22,12,49,14.50
2016,08,22,12,50,14.50
2016,08,22,12,51,14.50
2016,08,22,12,52,14.50
2016,08,22,12,53,16.10
2016,08,22,12,54,14.50
2016,08,22,12,55,16.10
2016,08,22,12,56,11.30
2016,08,22,12,57,12.90
2016,08,22,12,58,14.50
2016,08,22,12,59,9.60
2016,08,22,13,00,14.50
2016,08,22,13,01,12.90
2016,08,22,13,02,6.40
2016,08,22,13,03,6.40
2016,08,22,13,04,16.10
2016,08,22,13,05,11.30
2016,08,22,13,06,9.60
2016,08,22,13,07,12.90
2016,08,22,13,08,16.10
2016,08,22,13,09,12.90
2016,08,22,13,10,12.90
2016,08,22,13,11,11.30
2016,08,22,13,12,11.30
2016,08,22,13,13,11.30
2016,08,22,13,14,19.30
2016,08,22,13,15,16.10
2016,08,22,13,16,12.90
2016,08,22,13,17,12.90
2016,08,22,13,18,12.90
2016,08,22,13,19,8.10
2016,08,22,13,20,14.50
2016,08,22,13,21,14.50
2016,08,22,13,22,17.70
2016,08,22,13,23,20.90
2016,08,22,13,24,19.30
2016,08,22,13,25,19.30
2016,08,22,13,26,19.30
2016,08,22,13,27,14.50
2016,08,22,13,28,11.30
2016,08,22,13,29,12.90
2016,08,22,13,30,17.70
2016,08,22,13,31,16.10
2016,08,22,13,32,12.90
2016,08,22,13,33,12.90
2016,08,22,13,34,14.50
2016,08,22,13,35,12.90
2016,08,22,13,36,12.90
2016,08,22,13,37,17.70
2016,08,22,13,38,17.70
2016,08,22,13,39,9.60
2016,08,22,13,40,11.30
2016,08,22,13,41,12.90
2016,08,22,13,42,16.10
2016,08,22,13,43,14.50
2016,08,22,13,44,17.70
2016,08,22,13,45,16.10
2016,08,22,13,46,16.10
2016,08,22,13,47,14.50
2016,08,22,13,48,14.50
2016,08,22,13,49,12.90
2016,08,22,13,50,16.10
2016,08,22,13,51,16.10
2016,08,22,13,52,14.50
2016,08,22,13,53,16.10
2016,08,22,13,54,11.30
2016,08,22,13,55,12.90
2016,08,22,13,56,16.10
2016,08,22,13,57,14.50
2016,08,22,13,58,14.50
2016,08,22,13,59,14.50
2016,08,22,14,00,16.10
2016,08,22,14,01,14.50
2016,08,22,14,02,17.70
2016,08,22,14,03,17.70
2016,08,22,14,04,19.30
2016,08,22,14,05,14.50
2016,08,22,14,06,17.70
2016,08,22,14,07,16.10
2016,08,22,14,08,16.10
2016,08,22,14,09,16.10
2016,08,22,14,10,14.50
2016,08,22,14,11,17.70
2016,08,22,14,12,12.90
2016,08,22,14,13,16.10
2016,08,22,14,14,17.70
2016,08,22,14,15,12.90
2016,08,22,14,16,9.60
2016,08,22,14,17,11.30
2016,08,22,14,18,9.60
2016,08,22,14,19,11.30
2016,08,22,14,20,11.30
2016,08,22,14,21,14.50
2016,08,22,14,22,14.50
2016,08,22,14,23,12.90
2016,08,22,14,24,11.30
2016,08,22,14,25,14.50
2016,08,22,14,26,14.50
2016,08,22,14,27,12.90
2016,08,22,14,28,9.60
2016,08,22,14,29,12.90
2016,08,22,14,30,14.50
2016,08,22,14,31,11.30
2016,08,22,14,32,14.50
2016,08,22,14,33,12.90
2016,08,22,14,34,9.60
2016,08,22,14,35,14.50
2016,08,22,14,36,17.70
2016,08,22,14,37,16.10
2016,08,22,14,38,16.10
2016,08,22,14,39,14.50
2016,08,22,14,40,16.10
2016,08,22,14,41,14.50
2016,08,22,14,42,19.30
2016,08,22,14,43,14.50
2016,08,22,14,44,17.70
2016,08,22,14,45,16.10
2016,08,22,14,46,11.30
2016,08,22,14,47,8.10
2016,08,22,14,48,9.60
2016,08,22,14,49,11.30
2016,08,22,14,50,11.30
2016,08,22,14,51,9.60
2016,08,22,14,52,12.90
2016,08,22,14,53,8.10
2016,08,22,14,54,8.10
2016,08,22,14,55,8.10
2016,08,22,14,56,8.10
2016,08,22,14,57,12.90
2016,08,22,14,58,12.90
2016,08,22,14,59,6.40
2016,08,22,15,00,8.10
2016,08,22,15,01,6.40
2016,08,22,15,02,8.10
2016,08,22,15,03,11.30
2016,08,22,15,04,9.60
2016,08,22,15,05,11.30
2016,08,22,15,06,12.90
2016,08,22,15,07,14.50
2016,08,22,15,08,12.90
2016,08,22,15,09,11.30
2016,08,22,15,10,8.10
2016,08,22,15,11,12.90
2016,08,22,15,12,9.60
2016,08,22,15,13,9.60
2016,08,22,15,14,14.50
2016,08,22,15,15,14.50
2016,08,22,15,16,8.10
2016,08,22,15,17,14.50
2016,08,22,15,18,16.10
2016,08,22,15,19,12.90
2016,08,22,15,20,14.50
2016,08,22,15,21,12.90
2016,08,22,15,22,11.30
2016,08,22,15,23,9.60
2016,08,22,15,24,14.50
2016,08,22,15,25,14.50
2016,08,22,15,26,12.90
2016,08,22,15,27,11.30
2016,08,22,15,28,14.50
2016,08,22,15,29,17.70
2016,08,22,15,30,11.30
2016,08,22,15,31,11.30
2016,08,22,15,32,11.30
2016,08,22,15,33,14.50
2016,08,22,15,34,17.70
2016,08,22,15,35,16.10
2016,08,22,15,36,14.50
2016,08,22,15,37,14.50
2016,08,22,15,38,14.50
2016,08,22,15,39,17.70
2016,08,22,15,40,12.90
2016,08,22,15,41,16.10
2016,08,22,15,42,14.50
2016,08,22,15,43,19.30
2016,08,22,15,44,16.10
2016,08,22,15,45,12.90
2016,08,22,15,46,9.60
2016,08,22,15,47,12.90
2016,08,22,15,48,8.10
2016,08,22,15,49,9.60
2016,08,22,15,50,9.60
2016,08,22,15,51,9.60
2016,08,22,15,52,16.10
2016,08,22,15,53,14.50
2016,08,22,15,54,9.60
2016,08,22,15,55,12.90
2016,08,22,15,56,9.60
2016,08,22,15,57,8.10
2016,08,22,15,58,12.90
2016,08,22,15,59,16.10
2016,08,22,16,00,14.50
2016,08,22,16,01,12.90
2016,08,22,16,02,12.90
2016,08,22,16,03,14.50
2016,08,22,16,04,6.40
2016,08,22,16,05,8.10
2016,08,22,16,06,11.30
2016,08,22,16,07,9.60
2016,08,22,16,08,19.30
2016,08,22,16,09,14.50
2016,08,22,16,10,14.50
2016,08,22,16,11,12.90
2016,08,22,16,12,8.10
2016,08,22,16,13,6.40
2016,08,22,16,14,8.10
2016,08,22,16,15,14.50
2016,08,22,16,16,16.10
2016,08,22,16,17,9.60
2016,08,22,16,18,9.60
2016,08,22,16,19,8.10
2016,08,22,16,20,9.60
2016,08,22,16,21,9.60
2016,08,22,16,22,9.60
2016,08,22,16,23,8.10
2016,08,22,16,24,12.90
2016,08,22,16,25,14.50
2016,08,22,16,26,12.90
2016,08,22,16,27,9.60
2016,08,22,16,28,8.10
2016,08,22,16,29,12.90
2016,08,22,16,30,11.30
2016,08,22,16,31,11.30
2016,08,22,16,32,16.10
2016,08,22,16,33,14.50
2016,08,22,16,34,14.50
2016,08,22,16,35,11.30
2016,08,22,16,36,14.50
2016,08,22,16,37,9.60
2016,08,22,16,38,11.30
2016,08,22,16,39,14.50
2016,08,22,16,40,14.50
2016,08,22,16,41,14.50
2016,08,22,16,42,11.30
2016,08,22,16,43,8.10
2016,08,22,16,44,12.90
2016,08,22,16,45,8.10
2016,08,22,16,46,16.10
2016,08,22,16,47,14.50
2016,08,22,16,48,9.60
2016,08,22,16,49,12.90
2016,08,22,16,50,12.90
2016,08,22,16,51,14.50
2016,08,22,16,52,11.30
2016,08,22,16,53,6.40
2016,08,22,16,54,14.50
2016,08,22,16,55,16.10
2016,08,22,16,56,14.50
2016,08,22,16,57,12.90
2016,08,22,16,58,12.90
2016,08,22,16,59,12.90
2016,08,22,17,00,8.10
2016,08,22,17,01,4.80
2016,08,22,17,02,6.40
2016,08,22,17,03,8.10
2016,08,22,17,04,4.80
2016,08,22,17,05,9.60
2016,08,22,17,06,9.60
2016,08,22,17,07,11.30
2016,08,22,17,08,12.90
2016,08,22,17,09,9.60
2016,08,22,17,10,11.30
2016,08,22,17,11,11.30
2016,08,22,17,12,8.10
2016,08,22,17,13,4.80
2016,08,22,17,14,11.30
2016,08,22,17,15,4.80
2016,08,22,17,16,9.60
2016,08,22,17,17,8.10
2016,08,22,17,18,12.90
2016,08,22,17,19,11.30
2016,08,22,17,20,8.10
2016,08,22,17,21,9.60
2016,08,22,17,22,9.60
2016,08,22,17,23,8.10
2016,08,22,17,24,6.40
2016,08,22,17,25,9.60
2016,08,22,17,26,11.30
2016,08,22,17,27,8.10
2016,08,22,17,28,4.80
2016,08,22,17,29,6.40
2016,08,22,17,30,8.10
2016,08,22,17,31,16.10
2016,08,22,17,32,12.90
2016,08,22,17,33,4.80
2016,08,22,17,34,3.20
2016,08,22,17,35,8.10
2016,08,22,17,36,3.20
2016,08,22,17,37,12.90
2016,08,22,17,38,9.60
2016,08,22,17,39,9.60
2016,08,22,17,40,9.60
2016,08,22,17,41,9.60
2016,08,22,17,42,6.40
2016,08,22,17,43,6.40
2016,08,22,17,44,4.80
2016,08,22,17,45,4.80
2016,08,22,17,46,11.30
2016,08,22,17,47,4.80
2016,08,22,17,48,6.40
2016,08,22,17,49,8.10